GW5168 Weather Reports


time (UTC)temp
F
wind
direction
speed
knots
gust
knots
rain 1hr
in
rain 24hr
in
rain mn
in
humidity
%
barometer
mb
20260504175556 70 249 5.2 14.8 0.00 0.00 0.00 32 1010.5
20260504175056 70 203 3.5 13.0 0.00 0.00 0.00 33 1010.4
20260504174613 69 0 2.6 13.0 0.00 0.00 0.00 36 1010.5
20260504174056 69 206 5.2 13.0 0.00 0.00 0.00 35 1010.6
20260504173556 69 169 5.2 12.2 0.00 0.00 0.00 32 1010.8
20260504173055 68 244 5.2 12.2 0.00 0.00 0.00 35 1010.7
20260504172556 69 218 5.2 12.2 0.00 0.00 0.00 32 1010.8
20260504172057 69 275 2.6 12.2 0.00 0.00 0.00 34 1010.9
20260504171555 69 261 4.3 12.2 0.00 0.00 0.00 34 1011.1
20260504171057 69 209 2.6 12.2 0.00 0.00 0.00 35 1010.9
20260504170557 69 279 2.6 12.2 0.00 0.00 0.00 34 1011.1
20260504160109 66 176 2.6 13.9 0.00 0.00 0.00 36 1011.9
20260504151056 63 0 6.1 16.5 0.00 0.00 0.00 36 1012.6
20260504150556 62 237 4.3 16.5 0.00 0.00 0.00 39 1012.6
20260504150108 62 236 2.6 11.3 0.00 0.00 0.00 38 1012.5
20260504141056 61 202 4.3 11.3 0.00 0.00 0.00 40 1012.7
20260504140556 61 125 2.6 11.3 0.00 0.00 0.00 41 1012.7
20260504130556 56 232 0.9 7.0 0.00 0.00 0.00 49 1013.2
20260504110559 33 0 0.0 0.9 0.00 0.00 0.00 91 1013.6
20260504100556 31 0 0.0 0.0 0.00 0.00 0.00 90 1013.4
20260504090104 31 0 0.0 0.0 0.00 0.00 0.00 89 1013.3
20260504081557 32 0 0.0 0.0 0.00 0.00 0.00 89 1013.3
20260504081057 32 0 0.0 0.0 0.00 0.00 0.00 89 1013.2
20260504080600 32 0 0.0 0.0 0.00 0.00 0.00 89 1013.3
20260504050556 34 0 0.0 0.0 0.00 0.00 0.00 88 1013.2
20260504050106 34 0 0.0 0.0 0.00 0.00 0.00 87 1013.1
20260504045556 34 0 0.0 0.0 0.00 0.00 0.00 87 1013.1
20260504045056 34 0 0.0 0.0 0.00 0.00 0.00 87 1013.1
20260504044605 34 0 0.0 0.0 0.00 0.00 0.00 87 1013.1
20260504044057 34 0 0.0 0.0 0.00 0.00 0.00 87 1013.0
20260504043558 34 0 0.0 0.0 0.00 0.00 0.00 87 1013.0
20260504043102 34 0 0.0 0.0 0.00 0.00 0.00 87 1013.0
20260504042557 34 0 0.0 0.0 0.00 0.00 0.00 87 1012.9
20260504042056 35 0 0.0 0.0 0.00 0.00 0.00 87 1012.9
20260504041556 35 0 0.0 0.0 0.00 0.00 0.00 87 1012.9
20260504041056 35 0 0.0 0.0 0.00 0.00 0.00 86 1012.8
20260504040556 35 0 0.0 0.0 0.00 0.00 0.00 86 1012.6
20260504040107 35 0 0.0 0.0 0.00 0.00 0.00 86 1012.6
20260504035556 35 0 0.0 0.0 0.00 0.00 0.00 86 1012.5
20260504035056 35 0 0.0 0.0 0.00 0.00 0.00 86 1012.4
20260504034634 35 0 0.0 0.0 0.00 0.00 0.00 86 1012.4
20260504034056 35 0 0.0 0.0 0.00 0.00 0.00 86 1012.4
20260504033557 35 0 0.0 0.0 0.00 0.00 0.00 86 1012.3
20260504033057 36 0 0.0 0.0 0.00 0.00 0.00 85 1012.3
20260504032557 36 0 0.0 0.0 0.00 0.00 0.00 85 1012.3
20260504032056 36 0 0.0 0.0 0.00 0.00 0.00 85 1012.4
20260504031558 36 0 0.0 0.0 0.00 0.00 0.00 85 1012.4
20260504031057 36 0 0.0 0.0 0.00 0.00 0.00 84 1012.3
20260504030556 36 0 0.0 0.0 0.00 0.00 0.00 84 1012.3
20260504030122 36 0 0.0 0.0 0.00 0.00 0.00 84 1012.3
20260504025556 37 0 0.0 0.0 0.00 0.00 0.00 84 1012.3
20260504025057 37 0 0.0 0.0 0.00 0.00 0.00 84 1012.3
20260504024600 37 0 0.0 0.0 0.00 0.00 0.00 84 1012.3
20260504024056 37 0 0.0 0.0 0.00 0.00 0.00 83 1012.3
20260504023556 37 0 0.0 0.0 0.00 0.00 0.00 83 1012.4
20260504023100 38 0 0.0 0.0 0.00 0.00 0.00 83 1012.3
20260504022557 38 0 0.0 0.0 0.00 0.00 0.00 83 1012.2
20260504022056 38 0 0.0 0.0 0.00 0.00 0.00 82 1012.2
20260504021557 38 0 0.0 0.0 0.00 0.00 0.00 82 1012.3
20260504021059 38 0 0.0 0.0 0.00 0.00 0.00 82 1012.4
20260504020556 39 0 0.0 0.0 0.00 0.00 0.00 82 1012.3
20260504020107 39 0 0.0 0.0 0.00 0.00 0.00 81 1012.3
20260504015557 39 0 0.0 0.0 0.00 0.00 0.00 81 1012.2
20260504015057 39 0 0.0 0.0 0.00 0.00 0.00 80 1012.3
20260504014604 39 0 0.0 0.0 0.00 0.00 0.00 80 1012.3
20260504014056 40 0 0.0 0.0 0.00 0.00 0.00 79 1012.2
20260504013556 40 0 0.0 0.0 0.00 0.00 0.00 79 1012.2
20260504013058 40 0 0.0 0.0 0.00 0.00 0.00 78 1012.1
20260504012556 41 0 0.0 0.0 0.00 0.00 0.00 78 1012.0
20260504012057 41 0 0.0 0.0 0.00 0.00 0.00 78 1012.1
20260504011557 41 0 0.0 0.0 0.00 0.00 0.00 77 1012.0
20260504011056 41 0 0.0 0.0 0.00 0.00 0.00 76 1011.9
20260504010556 42 0 0.0 0.0 0.00 0.00 0.00 76 1011.9
20260504010056 42 0 0.0 0.0 0.00 0.00 0.00 75 1011.8
20260504005557 42 0 0.0 0.0 0.00 0.00 0.00 73 1011.7
20260504005100 43 0 0.0 0.0 0.00 0.00 0.00 73 1011.7
20260504004556 43 0 0.0 0.0 0.00 0.00 0.00 71 1011.7
20260504004057 44 0 0.0 0.0 0.00 0.00 0.00 70 1011.6
20260504003557 44 0 0.0 0.0 0.00 0.00 0.00 68 1011.5
20260504003056 45 0 0.0 0.0 0.00 0.00 0.00 67 1011.5
20260504002556 46 0 0.0 0.0 0.00 0.00 0.00 64 1011.4
20260504002056 46 0 0.0 0.0 0.00 0.00 0.00 62 1011.3
20260504001606 47 0 0.0 0.0 0.00 0.00 0.00 61 1011.2
20260504001056 48 0 0.0 0.0 0.00 0.00 0.00 58 1011.2
20260504000556 49 0 0.0 0.0 0.00 0.00 0.00 55 1011.2
20260504000059 49 0 0.0 0.0 0.00 0.00 0.00 53 1011.2
20260503235558 50 0 0.0 0.0 0.00 0.00 0.00 51 1011.1
20260503235058 51 0 0.0 0.0 0.00 0.00 0.00 48 1011.0
20260503234555 52 0 0.0 3.5 0.00 0.00 0.00 47 1011.0
20260503234057 53 0 0.0 3.5 0.00 0.00 0.00 46 1010.9
20260503233557 54 0 0.0 3.5 0.00 0.00 0.00 41 1010.9
20260503233101 55 0 0.0 2.6 0.00 0.00 0.00 40 1010.8
20260503232558 55 0 0.0 10.4 0.00 0.00 0.00 38 1010.8
20260503232056 56 0 1.7 10.4 0.00 0.00 0.00 37 1010.9
20260503231556 56 0 0.9 7.8 0.00 0.00 0.00 37 1010.8
20260503231057 56 286 0.9 7.8 0.00 0.00 0.00 35 1010.8
20260503230556 57 0 0.9 7.8 0.00 0.00 0.00 34 1010.6
20260503225557 57 0 0.0 12.2 0.00 0.00 0.00 33 1010.6
20260503225100 58 0 0.0 12.2 0.00 0.00 0.00 35 1010.6
20260503224555 58 0 2.6 13.9 0.00 0.00 0.00 34 1010.6
20260503224058 59 230 1.7 13.9 0.00 0.00 0.00 32 1010.4
20260503223557 59 195 2.6 13.9 0.00 0.00 0.00 31 1010.5
20260503223058 59 0 3.5 13.9 0.00 0.00 0.00 30 1010.4
20260503222556 60 0 2.6 8.7 0.00 0.00 0.00 31 1010.3
20260503222056 60 0 0.9 8.7 0.00 0.00 0.00 33 1010.4
20260503221600 60 229 3.5 9.6 0.00 0.00 0.00 31 1010.4
20260503221058 60 316 3.5 9.6 0.00 0.00 0.00 29 1010.4
20260503220558 60 317 3.5 7.8 0.00 0.00 0.00 30 1010.3
20260503220057 60 276 0.9 11.3 0.00 0.00 0.00 33 1010.4
20260503215556 60 211 2.6 11.3 0.00 0.00 0.00 30 1010.2
20260503215056 60 159 3.5 8.7 0.00 0.00 0.00 29 1010.2
20260503214603 60 0 1.7 7.8 0.00 0.00 0.00 29 1010.3
20260503214057 59 0 1.7 7.8 0.00 0.00 0.00 31 1010.1
20260503213556 59 178 1.7 7.8 0.00 0.00 0.00 31 1010.3
20260503213058 59 0 0.9 10.4 0.00 0.00 0.00 30 1010.3
20260503212557 59 0 1.7 10.4 0.00 0.00 0.00 31 1010.3
20260503212057 59 222 3.5 13.0 0.00 0.00 0.00 30 1010.2
20260503211556 59 188 3.5 13.0 0.00 0.00 0.00 30 1010.3
20260503211058 60 237 5.2 13.0 0.00 0.00 0.00 28 1010.3
20260503210556 60 0 4.3 10.4 0.00 0.00 0.00 32 1010.2
20260503210058 60 0 2.6 7.8 0.00 0.00 0.00 30 1010.3
20260503205556 60 211 1.7 15.6 0.00 0.00 0.00 30 1010.2
20260503205057 60 268 3.5 15.6 0.00 0.00 0.00 31 1010.3
20260503204603 61 287 0.9 13.0 0.00 0.00 0.00 30 1010.3
20260503204057 60 225 2.6 13.0 0.00 0.00 0.00 31 1010.3
20260503203556 60 282 1.7 9.6 0.00 0.00 0.00 30 1010.3
20260503203059 60 0 2.6 9.6 0.00 0.00 0.00 30 1010.3
20260503202557 59 289 1.7 15.6 0.00 0.00 0.00 31 1010.5
20260503202059 59 279 3.5 15.6 0.00 0.00 0.00 31 1010.6
20260503201558 59 285 1.7 8.7 0.00 0.00 0.00 33 1010.7
20260503201056 59 230 1.7 8.7 0.00 0.00 0.00 31 1010.7
20260503200558 59 233 3.5 9.6 0.00 0.00 0.00 31 1010.6
20260503200058 58 292 1.7 9.6 0.00 0.00 0.00 32 1010.7
20260503195557 58 209 1.7 9.6 0.00 0.00 0.00 31 1010.8
20260503195056 57 0 2.6 8.7 0.00 0.00 0.00 32 1010.9
20260503194600 57 224 0.9 13.9 0.00 0.00 0.00 33 1010.8
20260503194058 58 205 2.6 13.9 0.00 0.00 0.00 31 1010.9
20260503193556 59 240 1.7 11.3 0.00 0.00 0.00 32 1011.0
20260503193111 59 196 2.6 11.3 0.00 0.00 0.00 33 1011.1
20260503192556 59 185 2.6 8.7 0.00 0.00 0.00 32 1011.0
20260503192057 57 0 1.7 8.7 0.00 0.00 0.00 32 1011.0
20260503191558 56 252 2.6 8.7 0.00 0.00 0.00 30 1011.2
20260503191057 58 0 1.7 13.0 0.00 0.00 0.00 31 1011.3
20260503190557 58 17 3.5 13.0 0.00 0.00 0.00 32 1011.1
20260503190108 58 213 1.7 12.2 0.00 0.00 0.00 30 1011.1
20260503185556 58 331 3.5 12.2 0.00 0.00 0.00 33 1011.1
20260503185056 57 219 4.3 12.2 0.00 0.00 0.00 32 1011.1
20260503184603 59 263 3.5 13.0 0.00 0.00 0.00 30 1011.2
20260503184057 59 199 3.5 16.5 0.00 0.00 0.00 35 1011.2
20260503183557 58 59 5.2 16.5 0.00 0.00 0.00 30 1011.3
20260503183109 56 234 7.0 13.9 0.00 0.00 0.00 33 1011.3
20260503182557 57 267 2.6 13.0 0.00 0.00 0.00 32 1011.5
20260503182057 56 342 4.3 13.0 0.00 0.00 0.00 33 1011.6
20260503181559 57 266 3.5 13.0 0.00 0.00 0.00 33 1011.5
20260503181057 56 321 3.5 13.0 0.00 0.00 0.00 34 1011.2
20260503180600 57 293 5.2 13.0 0.00 0.00 0.00 32 1011.4
20260503180100 57 149 3.5 11.3 0.00 0.00 0.00 32 1011.5